Regional Weather Roundup
Issued by NWS Austin/San Antonio, TX

Home | Current Version | Previous Version | Text Only | Print | Product List | Glossary On
Versions: 1 2 3 4 5 6 7 8 9 10 11 12 13 14 15 16 17 18 19 20 21 22 23 24 25 26 27 28 29 30 31 32 33 34 35 36 37 38 39 40 41 42 43 44 45 46 47 48 49 50
772
ASUS44 KEWX 202002
RWREWX
SOUTH TEXAS REGIONAL WEATHER ROUNDUP
NATIONAL WEATHER SERVICE AUSTIN/SAN ANTONIO TX
300 PM CDT TUE AUG 20 2019

NOTE: "FAIR" INDICATED FEW OR NO CLOUDS BELOW 12,000 FEET WITH NO
SIGNIFICANT WEATHER AND/OR OBSTRUCTIONS TO VISIBILITY.

* - THESE STATIONS ARE NOT NWS OR FAA STATIONS...AND ARE NOT SUBJECT
    TO NWS AND FAA QUALITY CONTROL.

TXZ171-172-183>190-202100-
TEXAS HILL COUNTRY AND EDWARDS PLATEAU

CITY           SKY/WX    TMP DP  RH WIND       PRES   REMARKS
JUNCTION       MOSUNNY   98  63  31 SE13G18   30.03F HX 100
*LLANO         MOSUNNY   99  63  30 S5        30.04F HX 100
BURNET         SUNNY     97  64  33 S7        30.05F HX  99
*HORSESHOE BAY MOSUNNY   97  63  32 SW9G18    30.02F HX  98
*KERRVILLE     SUNNY     96  65  35 SE10      30.05F HX  98
*FREDERICKSBRG MOSUNNY   93  60  33 S9        30.06F HX  92
*ROCKSPRINGS   SUNNY     90  64  43 S13       30.12F HX  91
*BOERNE        MOSUNNY   90  63  40 SE6       30.05F HX  90
*CASTROVILLE   MOSUNNY   98  60  28 SE7       30.02F HX  98
HONDO          MOSUNNY   96  64  34 SE6       30.01F HX  98
*UVALDE        SUNNY     96  64  35 S7        30.00F HX  98
DEL RIO        MOSUNNY   99  66  33 SE10      29.96F HX 103
LAUGHLIN AFB   MOSUNNY   97  64  33 SE15      29.97F HX  99
SPOFFORD       MOSUNNY   99  63  31 SE8G20    29.92F HX 101
*EAGLE PASS    MOSUNNY  102  61  25 E12G25    29.96F HX 103
CARRIZO SPRGS  MOSUNNY   99  63  30 E8G16     29.94F HX 100
$$

TXZ173-191>194-202-209-217>225-228-202100-
CENTRAL AND SOUTH CENTRAL TEXAS

CITY           SKY/WX    TMP DP  RH WIND       PRES   REMARKS
GEORGETOWN     MOSUNNY   98  68  37 S9        30.02F HX 103
AUSTIN/BERGSTM MOSUNNY   98  68  37 S9        30.00F HX 103
AUSTIN/MABRY   SUNNY    100  62  28 VRB7      30.01F HX 101
*AUSTIN/EXEC   MOSUNNY   95  66  38 S6        30.01F HX  98
*LAGO VISTA    MOSUNNY   94  67  40 S3        30.05S HX  98
SAN MARCOS     SUNNY     99  69  37 VRB6      30.01F HX 105
NEW BRAUNFELS  SUNNY     98  65  33 S9        29.99F HX 101
RANDOLPH AFB   MOSUNNY   96  66  36 SE6       30.01F HX  99
SEGUIN         MOSUNNY   96  65  36 S3        30.03F HX  98
KELLY FIELD    SUNNY     96  65  36 E8        29.99F HX  98
SAN ANTONIO    MOSUNNY   96  65  35 SE10      30.01F HX  98
STINSON FIELD  MOSUNNY   99  65  32 VRB6      29.97F HX 102
PLEASANTON     SUNNY     99  61  28 E5G16     29.98F HX 100
*LA GRANGE     SUNNY     98  69  38 S3        29.97F HX 104
*GIDDINGS      MOSUNNY  101  68  34 SE5       30.00F HX 106
*GONZALES      PTSUNNY   99  69  37 S7        29.98F HX 105
$$

TXZ163>164-176>182-195>201-210>213-226-227-235-202100-
SOUTHEAST TEXAS

CITY           SKY/WX    TMP DP  RH WIND       PRES   REMARKS
COLLEGE STN    SUNNY     98  70  40 W8        30.00F HX 105
*BRYAN         MOSUNNY   98  72  42 SW3       30.01F HX 107
*CALDWELL      MOSUNNY   98  68  38 SE5       30.00F HX 102
*CROCKETT      MOSUNNY   95  72  46 CALM      30.04F HX 103
*BRENHAM       SUNNY     96  68  39 CALM      30.01S HX 101
HUNTSVILLE     MOSUNNY   98  68  37 VRB5      30.00F HX 103
CONROE         CLOUDY    90  74  59 SW16      30.03S HX  99
HOUSTON BUSH   CLOUDY    83  74  74 S8        30.04F
HOUSTON HOBBY  PTSUNNY   85  72  65 SW6       30.04F HX  91
*HOUSTON SW AP CLOUDY    78  76  92 CALM      30.05F
PEARLAND       PTSUNNY   84  74  71 SE3       30.06S HX  91
HOUSTON HOOKS  PTSUNNY   81  74  79 S8        30.05S
ELLINGTON FLD  NOT AVBL
SUGAR LAND     PTSUNNY   80  76  87 S5        30.04F THUNDER
*HOUSTON EXEC  DRIZZLE   77  75  94 E7G15     30.06R
*CLEVELAND MUN FAIR      91  76  62 S5        30.02F HAZE    HX 102
*WHARTON       PTSUNNY   85  73  66 N5        30.04F HX  92
*COLUMBUS      CLOUDY    81  70  70 SE12      30.05S
*EAGLE LAKE    DRIZZLE   83  74  74 SW6       30.04  HX  90
$$

TXZ214>216-236>238-202100-
THE UPPER TEXAS COAST

CITY           SKY/WX    TMP DP  RH WIND       PRES   REMARKS
*ORANGE        CLOUDY    83  81  94 SW5       30.06F HX  97
PORT ARTHUR    PTSUNNY   82  78  88 W6        30.04F HX  91
GALVESTON      PTSUNNY   85  76  74 E8        30.05F HX  94
ANGLETON       FAIR      84  73  69 VRB3      30.03F HX  90
*BAY CITY      SUNNY     81  77  87 CALM      30.03F
PALACIOS       SUNNY     93  71  48 S10G17    30.01F HX 100
$$

TXZ229>234-239>247-202100-
TEXAS COASTAL BEND AND RIO GRANDE PLAINS

CITY           SKY/WX    TMP DP  RH WIND       PRES   REMARKS
VICTORIA       PTSUNNY   96  67  38 S13G20    29.99F HX 100
*BEEVILLE      NOT AVBL
ROCKPORT       SUNNY     92  75  57 SE13      30.00F HX 103
*PORT ARANSAS  SUNNY     89  78  69 SE8       30.02S HX 102
*PORT LAVACA   SUNNY     97  68  38 S10       30.00F HX 102
*INGLESIDE     NOT AVBL
CORPUS CHRISTI PTSUNNY   96  72  45 SE10      29.98F HX 104
CORPUS NAS     PTSUNNY   92  78  63 SE18G24   30.00F HX 107
*ROBSTOWN      SUNNY     97  66  35 SE9G17    29.98F HX 101
ALICE          MOSUNNY   98  65  33 SE13G20   29.95F HX 101
KINGSVILLE NAS PTSUNNY   98  72  42 SE15G24   29.96F HX 107
COTULLA        SUNNY    101  57  23 SE14      29.95F HX 100
LAREDO         MOSUNNY  101  62  27 S12G20    29.93F HX 102
$$

TXZ248>255-202100-
DEEP SOUTH TEXAS

CITY           SKY/WX    TMP DP  RH WIND       PRES   REMARKS
BROWNSVILLE    FAIR      97  75  49 E16G24    29.97S HX 109
PORT ISABEL    FAIR      92  75  57 E17       29.98S HX 103
HARLINGEN      MOSUNNY   97  72  44 E21       29.95F HX 105
*HEBBRONVILLE    N/A     98  56  24 S16       29.98F HX  96
MCALLEN        MOSUNNY  101  68  34 SE18G25   29.94F HX 106
*WESLACO       PTSUNNY   98  68  37 S13G18    29.94F HX 103
FALFURRIAS     MOSUNNY  102  65  29 SE12G18   29.94F HX 105
EDINBURG       FAIR     101  63  28 SE16G23   29.94F HX 104
*ZAPATA        FAIR     101  56  22 SE9G18    29.94F HX 100
$$

TXZ213>215-236>238-242>244-246-247-251-254-255-202100-
CMAN STATIONS

STATION/POSITION TIME  TEMP    WIND        PRES    WAVE
                       AIR SEA DIR/SP/G            HT/PER
                 (UTC) (F)     (DEG/KT/KT) (MB)    (FT/S)
SABINE PASS      1924   85 89  230/  4/  7 1019.4
NORTH JETTY/GLS  1924   83 88  150/  8/ 11 1016.6
EAGLE POINT      1924   86 89  210/  7/  9 1016.7
MORGANS POINT    1924   85 89  270/  6/  9 1017.3
PORT O`CONNOR    1924   86 88  170/ 10/ 12 1016.1
PORT ARANSAS     1900   85 86  140/  7/  8 1016.6
MALAQUITE BEACH  1930          100/  7/  8 1015.8
BAFFIN BAY       1930          100/ 11/ 16 1015.7
PORT ISABEL      1930          120/ 13/ 16 1015.8
$$




USA.gov is the U.S. government's official web portal to all federal, state and local government web resources and services.